軌道要素
Epoch 2009 June 18.0 TT = JDT 2455000.5
T 2009 June 25.91769 TT MPCW
q 1.3229384 (2000.0) P Q
n 0.14008498 Peri. 27.06532 -0.94025305 +0.34024458
a 3.6717660 Node 172.79225 -0.32769420 -0.89432234
e 0.6396997 Incl. 5.74659 -0.09241600 -0.29055323
P 7.04
From 117 observations 2009 Apr. 24-2016 July 3, mean residual 0".5.
|